User: anonymous   Login
Location: Unspecified
(0.0000°N, 0.0000°E)
Time: 07:13:01
(UTC+00:00)
Language:

RS-2 - Orbit

View from above orbital plane
View from above orbital plane
View from above satellite
View from above satellite

Ground track
Ground track

The orbit data is extracted from the following two-line orbital elements,

1 11086U 78100C   21067.89430580  .00000018  00000-0  12272-3 0  9991
2 11086  82.5476  53.9577 0011554 214.5042 169.6053 11.96731597850596
Epoch (UTC): 08 March 2021 21:27:48
Eccentricity: 0.0011554
inclination: 82.5476°
perigee height: 1686 km
apogee height: 1705 km
right ascension of ascending node: 53.9577°
argument of perigee: 214.5042°
revolutions per day: 11.96731597
mean anomaly at epoch: 169.6053°
orbit number at epoch: 85059

The dashed part of the orbit path shows where the satellite is in the earth's shadow,  

DLR